Back to catalog

STARLINK-2643

AliveCommunicationsVLEO
NORAD 48367·PAYLOAD·🇺🇸 United States

Launched May 4, 2021 from Cape Canaveral Space Force Station

Loading…

Next Passes (next 24 hours)

TLE

FreshSource: CelesTrak SupGP

Epoch: Sep 14, 2026, 21:02 UTC

1 48367C 21038Q   26257.87687500 -.00010283  00000+0 -33065-3 0  2577
2 48367  53.1603 184.9597 0001409  89.5060 336.4114 15.31708231    17

Track STARLINK-2643 in real time with AllMySat

Download on the App Store